Weather in Hat Yai

Thailand     6°58′46″N   100°28′06″E
temp.,
°C
wind,
m/s
gust,
m/s
humid.,
%
clouds,
%
prec.,
mm/h
press.,
hPa
HPBL,
m
5 march, fri
fri501:00+24ese269268 0.1 1012201
04:00+23e25931 0.0 1010167
07:00+24e26912 0.0 1011240
10:00+30e576423 0.0 10131119
13:00+32ene665838 0.2 10111292
16:00+30ne676525 0.0 1009989
19:00+25ene378440 0.0 1010237
22:00+24ene238924 0.0 101260
6 march, sat
sat601:00+24ene129330 0.2 101243
04:00+23e239522 0.3 101055
07:00+24e129418 0.3 101267
10:00+30ene566639 0.1 10141164
13:00+32ene665552 0.3 10111362
16:00+30ne66612 0.0 10091131
19:00+25ne37831 0.0 1010264
22:00+24ene12927 0.0 101341
7 march, sun
sun701:00+23ne019427 0.0 101224
04:00+23e019583 0.0 101023
07:00+23ene019589 0.0 101125
10:00+30ene456295 0.0 10131121
13:00+32ne674952 0.0 10111510
16:00+30ne676015 0.0 10081079
19:00+25ene37847 0.0 1010201
22:00+23ene239213 0.0 101259
8 march, mon
mon801:00+23e239429 0.0 101253
04:00+22sse229592 0.0 101036
07:00+22s119696 0.0 101225
10:00+29e3559100 0.0 1014925
13:00+32ene5649100 0.0 10111264
16:00+30ne6661100 0.0 10091011
19:00+25ne378175 0.0 1010250
22:00+24ne238983 0.0 101368
9 march, tue
tue901:00+23e239372 0.0 101251
04:00+22sse119564 0.0 101025
07:00+22ese129434 0.0 101258
10:00+31e57562 0.0 10141125
13:00+32ene67491 0.0 10111431
16:00+30ene67580 0.0 10091093
19:00+25ene38790 0.0 1010321
22:00+24ene37840 0.0 1013221